User: anonymous   Login
Location: ????????
(55.0808°N, 38.5463°E)
Time: 12:48:47
(UTC+00:00)
Language:

Cosmos 2360 Rocket - Orbit

View from above orbital plane
View from above orbital plane
View from above satellite
View from above satellite

Ground track
Ground track

The orbit data is extracted from the following two-line orbital elements,

1 25407U 98045B   24167.93906700 -.00000198  00000-0 -76222-4 0  9991
2 25407  71.0121  69.9722 0009798 268.6609  91.3392 14.16007613337668
Epoch (UTC): 15 June 2024 22:32:15
Eccentricity: 0.0009798
inclination: 71.0121°
perigee height: 832 km
apogee height: 846 km
right ascension of ascending node: 69.9722°
argument of perigee: 268.6609°
revolutions per day: 14.16007613
mean anomaly at epoch: 91.3392°
orbit number at epoch: 33766

The dashed part of the orbit path shows where the satellite is in the earth's shadow,  

DLR